TimeCST,TemperatureF,Dew PointF,Humidity,Sea Level PressureIn,VisibilityMPH,Wind Direction,Wind SpeedMPH,Gust SpeedMPH,PrecipitationIn,Events,Conditions,WindDirDegrees,DateUTC
12:54 AM,26.1,17.1,69,30.15,10.0,North,6.9,-,N/A,,Overcast,10,2013-02-06 06:54:00
1:54 AM,24.8,17.6,74,30.13,10.0,NNE,4.6,-,N/A,,Overcast,30,2013-02-06 07:54:00
2:30 AM,21.2,14.0,74,30.13,10.0,NNE,8.1,-,N/A,,Partly Cloudy,30,2013-02-06 08:30:00
2:54 AM,21.0,15.1,78,30.17,10.0,NE,6.9,-,N/A,,Clear,50,2013-02-06 08:54:00
3:54 AM,14.0,10.9,88,30.19,10.0,ENE,3.5,-,N/A,,Clear,60,2013-02-06 09:54:00
4:54 AM,12.0,9.0,88,30.20,4.0,Calm,Calm,-,N/A,,Clear,0,2013-02-06 10:54:00
5:13 AM,10.4,8.6,92,30.17,2.0,Calm,Calm,-,N/A,,Clear,0,2013-02-06 11:13:00
5:54 AM,10.0,8.1,92,30.21,4.0,Calm,Calm,-,N/A,,Clear,0,2013-02-06 11:54:00
6:54 AM,6.1,1.9,83,30.22,5.0,Calm,Calm,-,N/A,,Clear,0,2013-02-06 12:54:00
7:54 AM,12.0,9.0,88,30.24,3.0,Calm,Calm,-,N/A,,Scattered Clouds,0,2013-02-06 13:54:00
8:54 AM,15.1,15.1,100,30.24,8.0,Calm,Calm,-,N/A,,Partly Cloudy,0,2013-02-06 14:54:00
9:54 AM,18.0,12.9,81,30.26,10.0,Calm,Calm,-,N/A,,Mostly Cloudy,0,2013-02-06 15:54:00
10:37 AM,24.8,15.8,69,30.22,10.0,SE,6.9,-,N/A,,Scattered Clouds,130,2013-02-06 16:37:00
10:54 AM,25.0,15.1,66,30.25,10.0,SSE,10.4,-,N/A,,Scattered Clouds,150,2013-02-06 16:54:00
11:54 AM,28.0,19.0,69,30.22,10.0,SE,9.2,-,N/A,,Partly Cloudy,140,2013-02-06 17:54:00
12:54 PM,30.0,23.0,75,30.22,10.0,SSE,9.2,-,N/A,,Mostly Cloudy,160,2013-02-06 18:54:00
1:54 PM,32.0,24.1,73,30.19,10.0,SE,6.9,-,N/A,,Mostly Cloudy,140,2013-02-06 19:54:00
2:54 PM,34.0,26.1,73,30.19,9.0,South,8.1,-,N/A,,Overcast,170,2013-02-06 20:54:00
3:54 PM,35.1,27.0,72,30.18,10.0,SSE,8.1,-,N/A,,Mostly Cloudy,160,2013-02-06 21:54:00
4:54 PM,35.1,28.0,76,30.16,10.0,SE,8.1,-,N/A,,Overcast,140,2013-02-06 22:54:00
5:54 PM,35.1,28.0,76,30.14,10.0,SE,8.1,-,N/A,,Overcast,130,2013-02-06 23:54:00
6:54 PM,34.0,28.9,82,30.15,10.0,SE,6.9,-,N/A,,Overcast,140,2013-02-07 00:54:00
7:54 PM,34.0,30.0,85,30.14,9.0,SE,10.4,-,N/A,,Overcast,140,2013-02-07 01:54:00
8:54 PM,35.1,30.0,82,30.12,10.0,SSE,10.4,-,N/A,,Overcast,150,2013-02-07 02:54:00
9:54 PM,35.1,30.0,82,30.12,9.0,SSE,16.1,-,N/A,,Overcast,160,2013-02-07 03:54:00
10:54 PM,35.1,30.0,82,30.10,9.0,SSE,12.7,-,N/A,,Overcast,150,2013-02-07 04:54:00
11:54 PM,34.0,30.0,85,30.10,8.0,SSE,12.7,-,N/A,,Overcast,160,2013-02-07 05:54:00